Location: Karcze
(52.0945°N, 22.4786°E)
Time: 12:20:13
(UTC+00:00)

Cosmos 1674 Rocket - Pass Details

Date: 14 July 2020
Orbit: 602 x 631 km, 82.5° (Epoch: 08 August)

Event Time Altitude Azimuth Distance (km) Brightness Sun altitude
Rises 01:02:33 0° 348° (NNW) 2,893 7.7 -9.6°
Reaches altitude 10° 01:04:48 10° 349° (NNW) 1,979 6.8 -9.4°
Maximum altitude 01:09:11 87° 258° (WSW) 616 3.5 -9.1°
Drops below altitude 10° 01:13:30 10° 172° (S) 1,948 5.7 -8.7°
Enters shadow 01:15:14 - 172° (S) 2,660 6.4 -8.5°
